{"data":{"norad_id":43034,"intl_designator":"2017-077A","name":"LKW-1","alt_names":[],"object_type":"PAYLOAD","status":"ACTIVE","operator":null,"country":"PRC","launch_date":"2017-12-03","launch_site_code":"JSC","launch_vehicle":null,"mission":null,"orbit_class":"UNKNOWN","rcs_meters":null,"size_class":null,"mass_kg":null,"dimensions":null,"purposes":[],"wikipedia_slug":null,"has_3d_model":false,"image_url":null,"decayed_at":null,"tle_current":{"epoch":"2026-09-20T05:16:26.615136Z","epoch_age_seconds":75828,"freshness":"FRESH","line1":"1 43034U 17077A   26263.21975249  .00003757  00000+0  15438-3 0  9999","line2":"2 43034  97.0937 292.4380 0001947 110.0283 250.1165 15.24753798489175","mean_motion":15.24753798,"eccentricity":0.0001947,"inclination_deg":97.0937,"raan_deg":292.438,"arg_perigee_deg":110.0283,"mean_anomaly_deg":250.1165,"bstar":0.00015438,"rev_number":48917,"period_min":94.441476511738,"perigee_km":490.18730731939,"apogee_km":492.86235363618,"semimajor_km":6869.6618304778,"source":"CELESTRAK","updated_at":"2026-09-20T09:00:14.267838Z"}}}